Year,Month,Day,Hour,Minute,Value (Times are PST for temperature in C)
2015,06,15,00,00,15.40
2015,06,15,00,01,15.40
2015,06,15,00,02,15.30
2015,06,15,00,03,15.20
2015,06,15,00,04,15.20
2015,06,15,00,05,15.10
2015,06,15,00,06,15.00
2015,06,15,00,07,15.00
2015,06,15,00,08,15.00
2015,06,15,00,09,15.00
2015,06,15,00,10,15.00
2015,06,15,00,11,14.90
2015,06,15,00,12,14.80
2015,06,15,00,13,14.80
2015,06,15,00,14,14.80
2015,06,15,00,15,14.70
2015,06,15,00,16,14.70
2015,06,15,00,17,14.70
2015,06,15,00,18,14.70
2015,06,15,00,19,14.80
2015,06,15,00,20,14.80
2015,06,15,00,21,14.80
2015,06,15,00,22,14.80
2015,06,15,00,23,14.80
2015,06,15,00,24,14.90
2015,06,15,00,25,14.80
2015,06,15,00,26,14.80
2015,06,15,00,27,14.90
2015,06,15,00,28,14.90
2015,06,15,00,29,14.90
2015,06,15,00,30,14.80
2015,06,15,00,31,14.80
2015,06,15,00,32,14.80
2015,06,15,00,33,14.80
2015,06,15,00,34,14.70
2015,06,15,00,35,14.70
2015,06,15,00,36,14.70
2015,06,15,00,37,14.70
2015,06,15,00,38,14.70
2015,06,15,00,39,14.70
2015,06,15,00,40,14.70
2015,06,15,00,41,14.70
2015,06,15,00,42,14.70
2015,06,15,00,43,14.70
2015,06,15,00,44,14.70
2015,06,15,00,45,14.70
2015,06,15,00,46,14.60
2015,06,15,00,47,14.60
2015,06,15,00,48,14.60
2015,06,15,00,49,14.60
2015,06,15,00,50,14.60
2015,06,15,00,51,14.50
2015,06,15,00,52,14.50
2015,06,15,00,53,14.50
2015,06,15,00,54,14.50
2015,06,15,00,55,14.50
2015,06,15,00,56,14.50
2015,06,15,00,57,14.50
2015,06,15,00,58,14.60
2015,06,15,00,59,14.60
2015,06,15,01,00,14.60
2015,06,15,01,01,14.50
2015,06,15,01,02,14.50
2015,06,15,01,03,14.50
2015,06,15,01,04,14.40
2015,06,15,01,05,14.40
2015,06,15,01,06,14.30
2015,06,15,01,07,14.30
2015,06,15,01,08,14.30
2015,06,15,01,09,14.30
2015,06,15,01,10,14.20
2015,06,15,01,11,14.20
2015,06,15,01,12,14.20
2015,06,15,01,13,14.20
2015,06,15,01,14,14.20
2015,06,15,01,15,14.20
2015,06,15,01,16,14.20
2015,06,15,01,17,14.20
2015,06,15,01,18,14.10
2015,06,15,01,19,14.10
2015,06,15,01,20,14.10
2015,06,15,01,21,14.10
2015,06,15,01,22,14.10
2015,06,15,01,23,14.10
2015,06,15,01,24,14.00
2015,06,15,01,25,14.10
2015,06,15,01,26,14.10
2015,06,15,01,27,14.10
2015,06,15,01,28,14.20
2015,06,15,01,29,14.20
2015,06,15,01,30,14.20
2015,06,15,01,31,14.20
2015,06,15,01,32,14.20
2015,06,15,01,33,14.20
2015,06,15,01,34,14.20
2015,06,15,01,35,14.20
2015,06,15,01,36,14.20
2015,06,15,01,37,14.20
2015,06,15,01,38,14.30
2015,06,15,01,39,14.40
2015,06,15,01,40,14.40
2015,06,15,01,41,14.40
2015,06,15,01,42,14.30
2015,06,15,01,43,14.30
2015,06,15,01,44,14.30
2015,06,15,01,45,14.30
2015,06,15,01,46,14.20
2015,06,15,01,47,14.20
2015,06,15,01,48,14.20
2015,06,15,01,49,14.10
2015,06,15,01,50,14.10
2015,06,15,01,51,14.10
2015,06,15,01,52,14.10
2015,06,15,01,53,14.00
2015,06,15,01,54,14.00
2015,06,15,01,55,13.90
2015,06,15,01,56,13.90
2015,06,15,01,57,13.90
2015,06,15,01,58,14.00
2015,06,15,01,59,14.10
2015,06,15,02,00,14.20
2015,06,15,02,01,14.40
2015,06,15,02,02,14.40
2015,06,15,02,03,14.50
2015,06,15,02,04,14.50
2015,06,15,02,05,14.50
2015,06,15,02,06,14.50
2015,06,15,02,07,14.50
2015,06,15,02,08,14.50
2015,06,15,02,09,14.40
2015,06,15,02,10,14.40
2015,06,15,02,11,14.30
2015,06,15,02,12,14.30
2015,06,15,02,13,14.30
2015,06,15,02,14,14.30
2015,06,15,02,15,14.30
2015,06,15,02,16,14.20
2015,06,15,02,17,14.20
2015,06,15,02,18,14.20
2015,06,15,02,19,14.20
2015,06,15,02,20,14.10
2015,06,15,02,21,14.10
2015,06,15,02,22,14.10
2015,06,15,02,23,14.10
2015,06,15,02,24,14.10
2015,06,15,02,25,14.10
2015,06,15,02,26,14.20
2015,06,15,02,27,14.20
2015,06,15,02,28,14.20
2015,06,15,02,29,14.20
2015,06,15,02,30,14.20
2015,06,15,02,31,14.10
2015,06,15,02,32,14.10
2015,06,15,02,33,14.10
2015,06,15,02,34,14.10
2015,06,15,02,35,14.10
2015,06,15,02,36,14.10
2015,06,15,02,37,14.10
2015,06,15,02,38,14.00
2015,06,15,02,39,14.00
2015,06,15,02,40,14.00
2015,06,15,02,41,13.90
2015,06,15,02,42,13.90
2015,06,15,02,43,13.90
2015,06,15,02,44,13.80
2015,06,15,02,45,13.80
2015,06,15,02,46,13.90
2015,06,15,02,47,14.00
2015,06,15,02,48,14.30
2015,06,15,02,49,14.70
2015,06,15,02,50,15.00
2015,06,15,02,51,15.20
2015,06,15,02,52,15.50
2015,06,15,02,53,15.70
2015,06,15,02,54,15.80
2015,06,15,02,55,16.00
2015,06,15,02,56,16.10
2015,06,15,02,57,16.20
2015,06,15,02,58,16.30
2015,06,15,02,59,16.40
2015,06,15,03,00,16.50
2015,06,15,03,01,16.60
2015,06,15,03,02,16.70
2015,06,15,03,03,16.80
2015,06,15,03,04,16.80
2015,06,15,03,05,16.90
2015,06,15,03,06,16.90
2015,06,15,03,07,17.00
2015,06,15,03,08,17.00
2015,06,15,03,09,17.00
2015,06,15,03,10,17.10
2015,06,15,03,11,17.10
2015,06,15,03,12,17.10
2015,06,15,03,13,17.10
2015,06,15,03,14,17.10
2015,06,15,03,15,17.20
2015,06,15,03,16,17.20
2015,06,15,03,17,17.20
2015,06,15,03,18,17.20
2015,06,15,03,19,17.20
2015,06,15,03,20,17.20
2015,06,15,03,21,17.20
2015,06,15,03,22,17.20
2015,06,15,03,23,17.10
2015,06,15,03,24,17.10
2015,06,15,03,25,17.10
2015,06,15,03,26,17.10
2015,06,15,03,27,17.10
2015,06,15,03,28,17.10
2015,06,15,03,29,17.10
2015,06,15,03,30,17.10
2015,06,15,03,31,17.00
2015,06,15,03,32,17.00
2015,06,15,03,33,17.00
2015,06,15,03,34,17.00
2015,06,15,03,35,17.00
2015,06,15,03,36,17.10
2015,06,15,03,37,17.10
2015,06,15,03,38,17.10
2015,06,15,03,39,17.10
2015,06,15,03,40,17.10
2015,06,15,03,41,17.10
2015,06,15,03,42,17.10
2015,06,15,03,43,17.10
2015,06,15,03,44,17.10
2015,06,15,03,45,17.10
2015,06,15,03,46,17.10
2015,06,15,03,47,17.10
2015,06,15,03,48,17.10
2015,06,15,03,49,17.00
2015,06,15,03,50,17.00
2015,06,15,03,51,16.90
2015,06,15,03,52,16.90
2015,06,15,03,53,16.90
2015,06,15,03,54,17.00
2015,06,15,03,55,16.90
2015,06,15,03,56,16.90
2015,06,15,03,57,16.90
2015,06,15,03,58,16.90
2015,06,15,03,59,16.80
2015,06,15,04,00,16.80
2015,06,15,04,01,16.80
2015,06,15,04,02,16.70
2015,06,15,04,03,16.70
2015,06,15,04,04,16.70
2015,06,15,04,05,16.60
2015,06,15,04,06,16.60
2015,06,15,04,07,16.50
2015,06,15,04,08,16.50
2015,06,15,04,09,16.40
2015,06,15,04,10,16.30
2015,06,15,04,11,16.30
2015,06,15,04,12,16.20
2015,06,15,04,13,16.20
2015,06,15,04,14,16.20
2015,06,15,04,15,16.10
2015,06,15,04,16,16.10
2015,06,15,04,17,16.10
2015,06,15,04,18,16.00
2015,06,15,04,19,15.90
2015,06,15,04,20,15.70
2015,06,15,04,21,15.50
2015,06,15,04,22,15.40
2015,06,15,04,23,15.30
2015,06,15,04,24,15.30
2015,06,15,04,25,15.20
2015,06,15,04,26,15.20
2015,06,15,04,27,15.10
2015,06,15,04,28,15.00
2015,06,15,04,29,15.00
2015,06,15,04,30,15.00
2015,06,15,04,31,15.00
2015,06,15,04,32,14.90
2015,06,15,04,33,14.90
2015,06,15,04,34,14.80
2015,06,15,04,35,14.80
2015,06,15,04,36,14.70
2015,06,15,04,37,14.70
2015,06,15,04,38,14.70
2015,06,15,04,39,14.60
2015,06,15,04,40,14.60
2015,06,15,04,41,14.60
2015,06,15,04,42,14.60
2015,06,15,04,43,14.50
2015,06,15,04,44,14.50
2015,06,15,04,45,14.50
2015,06,15,04,46,14.40
2015,06,15,04,47,14.40
2015,06,15,04,48,14.40
2015,06,15,04,49,14.40
2015,06,15,04,50,14.40
2015,06,15,04,51,14.40
2015,06,15,04,52,14.50
2015,06,15,04,53,14.60
2015,06,15,04,54,14.60
2015,06,15,04,55,14.60
2015,06,15,04,56,14.70
2015,06,15,04,57,14.80
2015,06,15,04,58,14.80
2015,06,15,04,59,14.90
2015,06,15,05,00,15.00
2015,06,15,05,01,15.00
2015,06,15,05,02,15.10
2015,06,15,05,03,15.40
2015,06,15,05,04,15.60
2015,06,15,05,05,15.70
2015,06,15,05,06,15.80
2015,06,15,05,07,15.80
2015,06,15,05,08,15.90
2015,06,15,05,09,15.90
2015,06,15,05,10,16.00
2015,06,15,05,11,16.00
2015,06,15,05,12,16.10
2015,06,15,05,13,16.10
2015,06,15,05,14,16.10
2015,06,15,05,15,16.10
2015,06,15,05,16,16.10
2015,06,15,05,17,16.00
2015,06,15,05,18,16.00
2015,06,15,05,19,15.90
2015,06,15,05,20,15.90
2015,06,15,05,21,15.80
2015,06,15,05,22,15.80
2015,06,15,05,23,15.70
2015,06,15,05,24,15.70
2015,06,15,05,25,15.70
2015,06,15,05,26,15.60
2015,06,15,05,27,15.60
2015,06,15,05,28,15.60
2015,06,15,05,29,15.60
2015,06,15,05,30,15.60
2015,06,15,05,31,15.50
2015,06,15,05,32,15.50
2015,06,15,05,33,15.50
2015,06,15,05,34,15.50
2015,06,15,05,35,15.50
2015,06,15,05,36,15.40
2015,06,15,05,37,15.50
2015,06,15,05,38,15.40
2015,06,15,05,39,15.40
2015,06,15,05,40,15.40
2015,06,15,05,41,15.40
2015,06,15,05,42,15.40
2015,06,15,05,43,15.40
2015,06,15,05,44,15.40
2015,06,15,05,45,15.40
2015,06,15,05,46,15.50
2015,06,15,05,47,15.50
2015,06,15,05,48,15.50
2015,06,15,05,49,15.50
2015,06,15,05,50,15.50
2015,06,15,05,51,15.50
2015,06,15,05,52,15.50
2015,06,15,05,53,15.50
2015,06,15,05,54,15.50
2015,06,15,05,55,15.40
2015,06,15,05,56,15.40
2015,06,15,05,57,15.40
2015,06,15,05,58,15.40
2015,06,15,05,59,15.40
2015,06,15,06,00,15.40
2015,06,15,06,01,15.40
2015,06,15,06,02,15.40
2015,06,15,06,03,15.40
2015,06,15,06,04,15.40
2015,06,15,06,05,15.40
2015,06,15,06,06,15.40
2015,06,15,06,07,15.40
2015,06,15,06,08,15.40
2015,06,15,06,09,15.40
2015,06,15,06,10,15.40
2015,06,15,06,11,15.50
2015,06,15,06,12,15.50
2015,06,15,06,13,15.50
2015,06,15,06,14,15.50
2015,06,15,06,15,15.50
2015,06,15,06,16,15.50
2015,06,15,06,17,15.60
2015,06,15,06,18,15.60
2015,06,15,06,19,15.60
2015,06,15,06,20,15.60
2015,06,15,06,21,15.60
2015,06,15,06,22,15.60
2015,06,15,06,23,15.60
2015,06,15,06,24,15.70
2015,06,15,06,25,15.70
2015,06,15,06,26,15.70
2015,06,15,06,27,15.70
2015,06,15,06,28,15.70
2015,06,15,06,29,15.80
2015,06,15,06,30,15.80
2015,06,15,06,31,15.90
2015,06,15,06,32,15.90
2015,06,15,06,33,15.90
2015,06,15,06,34,16.00
2015,06,15,06,35,16.00
2015,06,15,06,36,16.10
2015,06,15,06,37,16.10
2015,06,15,06,38,16.10
2015,06,15,06,39,16.10
2015,06,15,06,40,16.10
2015,06,15,06,41,16.10
2015,06,15,06,42,16.20
2015,06,15,06,43,16.20
2015,06,15,06,44,16.20
2015,06,15,06,45,16.20
2015,06,15,06,46,16.30
2015,06,15,06,47,16.30
2015,06,15,06,48,16.40
2015,06,15,06,49,16.50
2015,06,15,06,50,16.50
2015,06,15,06,51,16.60
2015,06,15,06,52,16.70
2015,06,15,06,53,16.70
2015,06,15,06,54,16.80
2015,06,15,06,55,16.80
2015,06,15,06,56,16.80
2015,06,15,06,57,16.80
2015,06,15,06,58,16.80
2015,06,15,06,59,16.80
2015,06,15,07,00,16.80
2015,06,15,07,01,16.80
2015,06,15,07,02,16.80
2015,06,15,07,03,16.80
2015,06,15,07,04,16.80
2015,06,15,07,05,16.90
2015,06,15,07,06,16.90
2015,06,15,07,07,16.90
2015,06,15,07,08,16.90
2015,06,15,07,09,16.90
2015,06,15,07,10,16.90
2015,06,15,07,11,17.00
2015,06,15,07,12,17.00
2015,06,15,07,13,17.00
2015,06,15,07,14,17.10
2015,06,15,07,15,17.10
2015,06,15,07,16,17.10
2015,06,15,07,17,17.20
2015,06,15,07,18,17.20
2015,06,15,07,19,17.20
2015,06,15,07,20,17.20
2015,06,15,07,21,17.30
2015,06,15,07,22,17.30
2015,06,15,07,23,17.30
2015,06,15,07,24,17.30
2015,06,15,07,25,17.30
2015,06,15,07,26,17.30
2015,06,15,07,27,17.30
2015,06,15,07,28,17.30
2015,06,15,07,29,17.30
2015,06,15,07,30,17.30
2015,06,15,07,31,17.30
2015,06,15,07,32,17.30
2015,06,15,07,33,17.30
2015,06,15,07,34,17.30
2015,06,15,07,35,17.30
2015,06,15,07,36,17.30
2015,06,15,07,37,17.20
2015,06,15,07,38,17.20
2015,06,15,07,39,17.20
2015,06,15,07,40,17.20
2015,06,15,07,41,17.20
2015,06,15,07,42,17.20
2015,06,15,07,43,17.20
2015,06,15,07,44,17.20
2015,06,15,07,45,17.20
2015,06,15,07,46,17.10
2015,06,15,07,47,17.10
2015,06,15,07,48,17.00
2015,06,15,07,49,17.00
2015,06,15,07,50,16.90
2015,06,15,07,51,16.90
2015,06,15,07,52,16.90
2015,06,15,07,53,16.90
2015,06,15,07,54,16.80
2015,06,15,07,55,16.80
2015,06,15,07,56,16.80
2015,06,15,07,57,16.80
2015,06,15,07,58,16.80
2015,06,15,07,59,16.80
2015,06,15,08,00,16.80
2015,06,15,08,01,16.70
2015,06,15,08,02,16.70
2015,06,15,08,03,16.70
2015,06,15,08,04,16.70
2015,06,15,08,05,16.70
2015,06,15,08,06,16.70
2015,06,15,08,07,16.70
2015,06,15,08,08,16.70
2015,06,15,08,09,16.80
2015,06,15,08,10,16.80
2015,06,15,08,11,16.80
2015,06,15,08,12,16.90
2015,06,15,08,13,16.90
2015,06,15,08,14,16.90
2015,06,15,08,15,16.90
2015,06,15,08,16,17.00
2015,06,15,08,17,17.00
2015,06,15,08,18,17.00
2015,06,15,08,19,17.00
2015,06,15,08,20,17.00
2015,06,15,08,21,17.10
2015,06,15,08,22,17.10
2015,06,15,08,23,17.10
2015,06,15,08,24,17.10
2015,06,15,08,25,17.10
2015,06,15,08,26,17.10
2015,06,15,08,27,17.20
2015,06,15,08,28,17.20
2015,06,15,08,29,17.20
2015,06,15,08,30,17.20
2015,06,15,08,31,17.30
2015,06,15,08,32,17.40
2015,06,15,08,33,17.50
2015,06,15,08,34,17.60
2015,06,15,08,35,17.70
2015,06,15,08,36,17.70
2015,06,15,08,37,17.70
2015,06,15,08,38,17.80
2015,06,15,08,39,17.80
2015,06,15,08,40,17.90
2015,06,15,08,41,17.90
2015,06,15,08,42,18.00
2015,06,15,08,43,18.00
2015,06,15,08,44,18.00
2015,06,15,08,45,18.00
2015,06,15,08,46,18.00
2015,06,15,08,47,18.00
2015,06,15,08,48,18.00
2015,06,15,08,49,18.00
2015,06,15,08,50,18.10
2015,06,15,08,51,18.10
2015,06,15,08,52,18.10
2015,06,15,08,53,18.20
2015,06,15,08,54,18.20
2015,06,15,08,55,18.20
2015,06,15,08,56,18.20
2015,06,15,08,57,18.30
2015,06,15,08,58,18.30
2015,06,15,08,59,18.40
2015,06,15,09,00,18.40
2015,06,15,09,01,18.40
2015,06,15,09,02,18.50
2015,06,15,09,03,18.50
2015,06,15,09,04,18.50
2015,06,15,09,05,18.50
2015,06,15,09,06,18.50
2015,06,15,09,07,18.40
2015,06,15,09,08,18.40
2015,06,15,09,09,18.40
2015,06,15,09,10,18.40
2015,06,15,09,11,18.50
2015,06,15,09,12,18.50
2015,06,15,09,13,18.60
2015,06,15,09,14,18.60
2015,06,15,09,15,18.70
2015,06,15,09,16,18.70
2015,06,15,09,17,18.70
2015,06,15,09,18,18.70
2015,06,15,09,19,18.80
2015,06,15,09,20,18.80
2015,06,15,09,21,18.90
2015,06,15,09,22,18.90
2015,06,15,09,23,19.00
2015,06,15,09,24,19.00
2015,06,15,09,25,19.00
2015,06,15,09,26,19.00
2015,06,15,09,27,19.10
2015,06,15,09,28,19.20
2015,06,15,09,29,19.30
2015,06,15,09,30,19.30
2015,06,15,09,31,19.40
2015,06,15,09,32,19.40
2015,06,15,09,33,19.40
2015,06,15,09,34,19.30
2015,06,15,09,35,19.30
2015,06,15,09,36,19.30
2015,06,15,09,37,19.30
2015,06,15,09,38,19.30
2015,06,15,09,39,19.20
2015,06,15,09,40,19.20
2015,06,15,09,41,19.20
2015,06,15,09,42,19.10
2015,06,15,09,43,19.10
2015,06,15,09,44,19.10
2015,06,15,09,45,19.10
2015,06,15,09,46,19.10
2015,06,15,09,47,19.10
2015,06,15,09,48,19.10
2015,06,15,09,49,19.10
2015,06,15,09,50,19.20
2015,06,15,09,51,19.20
2015,06,15,09,52,19.20
2015,06,15,09,53,19.30
2015,06,15,09,54,19.30
2015,06,15,09,55,19.30
2015,06,15,09,56,19.30
2015,06,15,09,57,19.30
2015,06,15,09,58,19.30
2015,06,15,09,59,19.40
2015,06,15,10,00,19.40
2015,06,15,10,01,19.40
2015,06,15,10,02,19.40
2015,06,15,10,03,19.40
2015,06,15,10,04,19.30
2015,06,15,10,05,19.30
2015,06,15,10,06,19.30
2015,06,15,10,07,19.30
2015,06,15,10,08,19.30
2015,06,15,10,09,19.30
2015,06,15,10,10,19.40
2015,06,15,10,11,19.50
2015,06,15,10,12,19.60
2015,06,15,10,13,19.70
2015,06,15,10,14,19.70
2015,06,15,10,15,19.80
2015,06,15,10,16,19.80
2015,06,15,10,17,19.90
2015,06,15,10,18,19.90
2015,06,15,10,19,19.80
2015,06,15,10,20,19.80
2015,06,15,10,21,19.70
2015,06,15,10,22,19.60
2015,06,15,10,23,19.50
2015,06,15,10,24,19.40
2015,06,15,10,25,19.30
2015,06,15,10,26,19.20
2015,06,15,10,27,19.10
2015,06,15,10,28,19.10
2015,06,15,10,29,19.10
2015,06,15,10,30,19.00
2015,06,15,10,31,19.00
2015,06,15,10,32,19.00
2015,06,15,10,33,19.10
2015,06,15,10,34,19.10
2015,06,15,10,35,19.20
2015,06,15,10,36,19.30
2015,06,15,10,37,19.30
2015,06,15,10,38,19.40
2015,06,15,10,39,19.50
2015,06,15,10,40,19.60
2015,06,15,10,41,19.60
2015,06,15,10,42,19.60
2015,06,15,10,43,19.70
2015,06,15,10,44,19.70
2015,06,15,10,45,19.70
2015,06,15,10,46,19.80
2015,06,15,10,47,19.80
2015,06,15,10,48,19.90
2015,06,15,10,49,19.90
2015,06,15,10,50,19.90
2015,06,15,10,51,19.90
2015,06,15,10,52,19.90
2015,06,15,10,53,19.90
2015,06,15,10,54,19.90
2015,06,15,10,55,20.00
2015,06,15,10,56,20.10
2015,06,15,10,57,20.30
2015,06,15,10,58,20.40
2015,06,15,10,59,20.40
2015,06,15,11,00,20.50
2015,06,15,11,01,20.50
2015,06,15,11,02,20.60
2015,06,15,11,03,20.70
2015,06,15,11,04,20.80
2015,06,15,11,05,21.00
2015,06,15,11,06,21.10
2015,06,15,11,07,21.10
2015,06,15,11,08,21.20
2015,06,15,11,09,21.20
2015,06,15,11,10,21.20
2015,06,15,11,11,21.20
2015,06,15,11,12,21.30
2015,06,15,11,13,21.30
2015,06,15,11,14,21.20
2015,06,15,11,15,21.20
2015,06,15,11,16,21.20
2015,06,15,11,17,21.30
2015,06,15,11,18,21.40
2015,06,15,11,19,21.40
2015,06,15,11,20,21.40
2015,06,15,11,21,21.40
2015,06,15,11,22,21.40
2015,06,15,11,23,21.30
2015,06,15,11,24,21.20
2015,06,15,11,25,21.20
2015,06,15,11,26,21.10
2015,06,15,11,27,21.20
2015,06,15,11,28,21.30
2015,06,15,11,29,21.30
2015,06,15,11,30,21.30
2015,06,15,11,31,21.30
2015,06,15,11,32,21.30
2015,06,15,11,33,21.30
2015,06,15,11,34,21.30
2015,06,15,11,35,21.30
2015,06,15,11,36,21.30
2015,06,15,11,37,21.40
2015,06,15,11,38,21.50
2015,06,15,11,39,21.60
2015,06,15,11,40,21.60
2015,06,15,11,41,21.60
2015,06,15,11,42,21.60
2015,06,15,11,43,21.60
2015,06,15,11,44,21.50
2015,06,15,11,45,21.40
2015,06,15,11,46,21.30
2015,06,15,11,47,21.20
2015,06,15,11,48,21.10
2015,06,15,11,49,21.10
2015,06,15,11,50,21.10
2015,06,15,11,51,21.10
2015,06,15,11,52,21.10
2015,06,15,11,53,21.10
2015,06,15,11,54,21.10
2015,06,15,11,55,21.10
2015,06,15,11,56,21.20
2015,06,15,11,57,21.20
2015,06,15,11,58,21.20
2015,06,15,11,59,21.30
2015,06,15,12,00,21.40
2015,06,15,12,01,21.40
2015,06,15,12,02,21.40
2015,06,15,12,03,21.40
2015,06,15,12,04,21.40
2015,06,15,12,05,21.40
2015,06,15,12,06,21.40
2015,06,15,12,07,21.40
2015,06,15,12,08,21.50
2015,06,15,12,09,21.60
2015,06,15,12,10,21.60
2015,06,15,12,11,21.70
2015,06,15,12,12,21.80
2015,06,15,12,13,21.90
2015,06,15,12,14,22.00
2015,06,15,12,15,22.10
2015,06,15,12,16,22.10
2015,06,15,12,17,22.20
2015,06,15,12,18,22.20
2015,06,15,12,19,22.10
2015,06,15,12,20,22.10
2015,06,15,12,21,22.10
2015,06,15,12,22,22.10
2015,06,15,12,23,22.10
2015,06,15,12,24,22.10
2015,06,15,12,25,22.20
2015,06,15,12,26,22.30
2015,06,15,12,27,22.30
2015,06,15,12,28,22.30
2015,06,15,12,29,22.20
2015,06,15,12,30,22.20
2015,06,15,12,31,22.20
2015,06,15,12,32,22.30
2015,06,15,12,33,22.30
2015,06,15,12,34,22.30
2015,06,15,12,35,22.30
2015,06,15,12,36,22.30
2015,06,15,12,37,22.30
2015,06,15,12,38,22.20
2015,06,15,12,39,22.30
2015,06,15,12,40,22.30
2015,06,15,12,41,22.40
2015,06,15,12,42,22.50
2015,06,15,12,43,22.50
2015,06,15,12,44,22.60
2015,06,15,12,45,22.50
2015,06,15,12,46,22.50
2015,06,15,12,47,22.50
2015,06,15,12,48,22.50
2015,06,15,12,49,22.40
2015,06,15,12,50,22.40
2015,06,15,12,51,22.30
2015,06,15,12,52,22.30
2015,06,15,12,53,22.30
2015,06,15,12,54,22.30
2015,06,15,12,55,22.30
2015,06,15,12,56,22.20
2015,06,15,12,57,22.20
2015,06,15,12,58,22.30
2015,06,15,12,59,22.30
2015,06,15,13,00,22.30
2015,06,15,13,01,22.40
2015,06,15,13,02,22.30
2015,06,15,13,03,22.30
2015,06,15,13,04,22.10
2015,06,15,13,05,22.00
2015,06,15,13,06,21.90
2015,06,15,13,07,21.80
2015,06,15,13,08,21.90
2015,06,15,13,09,22.00
2015,06,15,13,10,22.00
2015,06,15,13,11,22.10
2015,06,15,13,12,22.10
2015,06,15,13,13,22.00
2015,06,15,13,14,22.10
2015,06,15,13,15,22.10
2015,06,15,13,16,22.10
2015,06,15,13,17,22.10
2015,06,15,13,18,22.10
2015,06,15,13,19,22.00
2015,06,15,13,20,21.90
2015,06,15,13,21,21.90
2015,06,15,13,22,21.80
2015,06,15,13,23,21.80
2015,06,15,13,24,21.80
2015,06,15,13,25,21.80
2015,06,15,13,26,21.80
2015,06,15,13,27,21.90
2015,06,15,13,28,22.10
2015,06,15,13,29,22.30
2015,06,15,13,30,22.40
2015,06,15,13,31,22.60
2015,06,15,13,32,22.70
2015,06,15,13,33,22.60
2015,06,15,13,34,22.50
2015,06,15,13,35,22.40
2015,06,15,13,36,22.40
2015,06,15,13,37,22.40
2015,06,15,13,38,22.30
2015,06,15,13,39,22.30
2015,06,15,13,40,22.30
2015,06,15,13,41,22.30
2015,06,15,13,42,22.30
2015,06,15,13,43,22.30
2015,06,15,13,44,22.40
2015,06,15,13,45,22.50
2015,06,15,13,46,22.60
2015,06,15,13,47,22.70
2015,06,15,13,48,22.60
2015,06,15,13,49,22.60
2015,06,15,13,50,22.50
2015,06,15,13,51,22.50
2015,06,15,13,52,22.40
2015,06,15,13,53,22.50
2015,06,15,13,54,22.40
2015,06,15,13,55,22.40
2015,06,15,13,56,22.30
2015,06,15,13,57,22.40
2015,06,15,13,58,22.40
2015,06,15,13,59,22.30
2015,06,15,14,00,22.20
2015,06,15,14,01,22.10
2015,06,15,14,02,21.90
2015,06,15,14,03,21.80
2015,06,15,14,04,21.60
2015,06,15,14,05,21.50
2015,06,15,14,06,21.50
2015,06,15,14,07,21.50
2015,06,15,14,08,21.50
2015,06,15,14,09,21.50
2015,06,15,14,10,21.60
2015,06,15,14,11,21.50
2015,06,15,14,12,21.50
2015,06,15,14,13,21.50
2015,06,15,14,14,21.60
2015,06,15,14,15,21.60
2015,06,15,14,16,21.70
2015,06,15,14,17,21.70
2015,06,15,14,18,21.80
2015,06,15,14,19,21.90
2015,06,15,14,20,21.80
2015,06,15,14,21,21.80
2015,06,15,14,22,21.80
2015,06,15,14,23,21.80
2015,06,15,14,24,21.70
2015,06,15,14,25,21.60
2015,06,15,14,26,21.60
2015,06,15,14,27,21.60
2015,06,15,14,28,21.70
2015,06,15,14,29,21.80
2015,06,15,14,30,21.90
2015,06,15,14,31,21.90
2015,06,15,14,32,22.00
2015,06,15,14,33,22.10
2015,06,15,14,34,22.10
2015,06,15,14,35,22.20
2015,06,15,14,36,22.20
2015,06,15,14,37,22.20
2015,06,15,14,38,22.30
2015,06,15,14,39,22.40
2015,06,15,14,40,22.50
2015,06,15,14,41,22.50
2015,06,15,14,42,22.60
2015,06,15,14,43,22.60
2015,06,15,14,44,22.70
2015,06,15,14,45,22.70
2015,06,15,14,46,22.60
2015,06,15,14,47,22.60
2015,06,15,14,48,22.70
2015,06,15,14,49,22.70
2015,06,15,14,50,22.70
2015,06,15,14,51,22.70
2015,06,15,14,52,22.70
2015,06,15,14,53,22.80
2015,06,15,14,54,22.80
2015,06,15,14,55,22.90
2015,06,15,14,56,22.90
2015,06,15,14,57,22.90
2015,06,15,14,58,22.80
2015,06,15,14,59,22.80
2015,06,15,15,00,22.80
2015,06,15,15,01,22.80
2015,06,15,15,02,22.90
2015,06,15,15,03,22.90
2015,06,15,15,04,22.80
2015,06,15,15,05,22.80
2015,06,15,15,06,22.80
2015,06,15,15,07,22.70
2015,06,15,15,08,22.70
2015,06,15,15,09,22.70
2015,06,15,15,10,22.70
2015,06,15,15,11,22.70
2015,06,15,15,12,22.80
2015,06,15,15,13,22.80
2015,06,15,15,14,22.80
2015,06,15,15,15,22.80
2015,06,15,15,16,22.80
2015,06,15,15,17,22.80
2015,06,15,15,18,22.90
2015,06,15,15,19,23.00
2015,06,15,15,20,23.10
2015,06,15,15,21,23.20
2015,06,15,15,22,23.20
2015,06,15,15,23,23.30
2015,06,15,15,24,23.30
2015,06,15,15,25,23.20
2015,06,15,15,26,23.10
2015,06,15,15,27,23.00
2015,06,15,15,28,22.90
2015,06,15,15,29,22.80
2015,06,15,15,30,22.70
2015,06,15,15,31,22.60
2015,06,15,15,32,22.60
2015,06,15,15,33,22.60
2015,06,15,15,34,22.60
2015,06,15,15,35,22.60
2015,06,15,15,36,22.70
2015,06,15,15,37,22.80
2015,06,15,15,38,22.90
2015,06,15,15,39,23.00
2015,06,15,15,40,23.10
2015,06,15,15,41,23.00
2015,06,15,15,42,23.00
2015,06,15,15,43,22.90
2015,06,15,15,44,22.90
2015,06,15,15,45,22.90
2015,06,15,15,46,23.00
2015,06,15,15,47,23.20
2015,06,15,15,48,23.30
2015,06,15,15,49,23.30
2015,06,15,15,50,23.40
2015,06,15,15,51,23.50
2015,06,15,15,52,23.50
2015,06,15,15,53,23.40
2015,06,15,15,54,23.40
2015,06,15,15,55,23.40
2015,06,15,15,56,23.40
2015,06,15,15,57,23.40
2015,06,15,15,58,23.50
2015,06,15,15,59,23.60
2015,06,15,16,00,23.70
2015,06,15,16,01,23.70
2015,06,15,16,02,23.70
2015,06,15,16,03,23.60
2015,06,15,16,04,23.60
2015,06,15,16,05,23.60
2015,06,15,16,06,23.70
2015,06,15,16,07,23.70
2015,06,15,16,08,23.80
2015,06,15,16,09,24.00
2015,06,15,16,10,24.20
2015,06,15,16,11,24.30
2015,06,15,16,12,24.50
2015,06,15,16,13,24.70
2015,06,15,16,14,24.80
2015,06,15,16,15,24.90
2015,06,15,16,16,25.00
2015,06,15,16,17,25.00
2015,06,15,16,18,25.10
2015,06,15,16,19,25.10
2015,06,15,16,20,25.20
2015,06,15,16,21,25.30
2015,06,15,16,22,25.30
2015,06,15,16,23,25.30
2015,06,15,16,24,25.30
2015,06,15,16,25,25.20
2015,06,15,16,26,25.20
2015,06,15,16,27,25.20
2015,06,15,16,28,25.30
2015,06,15,16,29,25.40
2015,06,15,16,30,25.30
2015,06,15,16,31,25.20
2015,06,15,16,32,25.00
2015,06,15,16,33,24.90
2015,06,15,16,34,24.80
2015,06,15,16,35,24.80
2015,06,15,16,36,24.70
2015,06,15,16,37,24.50
2015,06,15,16,38,24.40
2015,06,15,16,39,24.40
2015,06,15,16,40,24.40
2015,06,15,16,41,24.40
2015,06,15,16,42,24.50
2015,06,15,16,43,24.60
2015,06,15,16,44,24.70
2015,06,15,16,45,24.80
2015,06,15,16,46,25.00
2015,06,15,16,47,25.00
2015,06,15,16,48,25.10
2015,06,15,16,49,25.20
2015,06,15,16,50,25.20
2015,06,15,16,51,25.10
2015,06,15,16,52,25.00
2015,06,15,16,53,25.00
2015,06,15,16,54,25.00
2015,06,15,16,55,25.00
2015,06,15,16,56,25.00
2015,06,15,16,57,25.10
2015,06,15,16,58,25.10
2015,06,15,16,59,25.10
2015,06,15,17,00,25.30
2015,06,15,17,01,25.30
2015,06,15,17,02,25.50
2015,06,15,17,03,25.60
2015,06,15,17,04,25.70
2015,06,15,17,05,25.90
2015,06,15,17,06,25.90
2015,06,15,17,07,26.00
2015,06,15,17,08,26.00
2015,06,15,17,09,26.00
2015,06,15,17,10,26.00
2015,06,15,17,11,25.90
2015,06,15,17,12,26.10
2015,06,15,17,13,26.10
2015,06,15,17,14,26.20
2015,06,15,17,15,26.30
2015,06,15,17,16,26.30
2015,06,15,17,17,26.40
2015,06,15,17,18,26.30
2015,06,15,17,19,26.20